Regional Weather Roundup
Issued by NWS Portland, ME

Home | Current Version | Previous Version | Text Only | Print | Product List | Glossary On
Versions: 1 2 3 4 5 6 7 8 9 10 11 12 13 14 15 16 17 18 19 20 21 22 23 24 25 26 27 28 29 30 31 32 33 34 35 36 37 38 39 40 41 42 43 44 45 46 47 48 49 50
000
ASUS41 KGYX 200410
RWRGYX
WEATHER ROUNDUP FOR MAINE AND NEW HAMPSHIRE
NATIONAL WEATHER SERVICE GRAY ME
1100 PM EST FRI JAN 19 2018

MEZ002-005-006-010-012-015-018-020-021-024-026-027-029-200500-
MAINE

CITY           SKY/WX    TMP DP  RH WIND       PRES   REMARKS
PORTLAND       CLOUDY    29  22  75 SW8       29.86F
SANFORD        FAIR      28  22  78 SW6       29.85F
BAR HARBOR     CLOUDY    28  25  88 CALM      29.85F
WISCASSET      CLOUDY    28  24  85 CALM      29.87S
ROCKLAND       CLOUDY    29  25  85 W6        29.85F
FRYEBURG       MOCLDY    27  22  81 SW6       29.81F
LEWISTONAUBURN MOCLDY    27  23  85 S5        29.83S
AUGUSTA        MOCLDY    28  22  78 S5        29.83S
WATERVILLE     CLOUDY    27  22  81 CALM      29.78S
BANGOR         CLOUDY    28  22  78 SW3       29.82F
GREENVILLE     NOT AVBL
MILLINOCKET    CLOUDY    27  22  81 VRB3      29.77F
HOULTON        CLOUDY    25  22  88 S8        29.73F
PRESQUE ISLE   CLOUDY    23  20  88 S8        29.71F
FRENCHVILLE    CLOUDY    22  19  89 S9        29.62F
CARIBOU        CLOUDY    24  19  81 S7        29.68F
$$

NHZ002-005-008-009-011-012-014-200500-
NEW HAMPSHIRE

CITY           SKY/WX    TMP DP  RH WIND       PRES   REMARKS
PORTSMOUTH     MOCLDY    28  20  71 SW7       29.86F
ROCHESTER      FAIR      27  22  81 CALM      29.85F
NASHUA         FAIR      20  17  88 SE5       29.89F
MANCHESTER     MOCLDY    29  20  69 S7        29.86F
CONCORD        FAIR      27  20  75 SE3       29.86F
LACONIA        FAIR      26  21  81 SW7       29.83F
PLYMOUTH       FAIR      23  20  91 CALM      29.82F
BERLIN         CLOUDY    24  22  91 CALM      29.75F
WHITEFIELD     MOCLDY    23  20  88 CALM      29.76F
JAFFREY        FAIR      25  20  81 S7        29.83F
LEBANON        FAIR      27  21  78 S10       29.81F WCI  17
MT WASHINGTON  FOG       14  14 100 W47G66      N/A  VSB 1/16WCI -11
$$

VTZ005-007-008-200500-
VERMONT

CITY           SKY/WX    TMP DP  RH WIND       PRES   REMARKS
ST JOHNSBURY     N/A     25  21  85 MISG      29.76F
MONTPELIER     FAIR      24  20  84 S12       29.77F WCI  13
BURLINGTON     MOCLDY    29  19  66 S15G21    29.75F WCI  18
$$

MAZ007-012-024-CTZ003-RIZ002-NYZ038-NYZ072-200500-
SOUTHERN NEW ENGLAND AND NY

CITY           SKY/WX    TMP DP  RH WIND       PRES   REMARKS
BOSTON         MOCLDY    30  20  66 SW10      29.92F
WORCESTER      FAIR      25  14  63 SW12      29.86F WCI  14
NANTUCKET      FAIR      30  27  88 W8        29.97F
PROVIDENCE     FAIR      31  20  63 SW8       29.95F
HARTFORD       FAIR      28  18  66 S8        29.91F
ALBANY         MOCLDY    27  16  63 S13       29.86F WCI  16
NEW YORK CITY  FAIR      39  19  44 SW9       29.95F
$$

ANZ081-ANZ082-ANZ150-NHZ014-MEZ023>029-200500-
COASTAL MARINE OBSERVATIONS

STATION/POSITION TIME  TEMP    WIND        PRES    WAVE
                       AIR SEA DIR/SP/G            HT/PER
                 (UTC) (F)     (DEG/KT/KT) (MB)    (FT/S)
MOUNT DESERT ROC 0400   35     210/ 19/ 21 1010.4F
MATINICUS ROCK   0300   34     240/ 13/ 15 1010.5F
ISLE OF SHOALS   0300   33     240/ 16/ 18 1012.0F
JEFFREYS LEDGE   0336      43                N/A     4/ 4
GEORGES BANK BUO 0250   38 58              1013.3    8/ 9
$$

.............KEY..............
   WCI - WIND CHILL
   TC  - TEMPERATURE IN CELSIUS
   VSB - VISIBILITY IN MILES
   HX  - HEAT INDEX
   FAIR- INDICATES FEW OR NO CLOUDS BELOW 12,000 FT, WITH NO
         SIGNIFICANT WEATHER AND/OR OBSTRUCTIONS TO VISIBILITY.






USA.gov is the U.S. government's official web portal to all federal, state and local government web resources and services.